Back to catalog

COSMOS 1323

AliveNavigationLEO
NORAD 12978·PAYLOAD·🇷🇺 Russia

Launched Nov 28, 1981 from Plesetsk Cosmodrome

Loading…

Next Passes (next 24 hours)

TLE

FreshSource: Space-Track

Epoch: Sep 14, 2026, 09:13 UTC

1 12978U 81116D   26257.38405525 -.00000024  00000-0 -79456-4 0  9991
2 12978  73.9786 260.4163 0089156  99.0189 328.8620 12.29208575 10029

Track COSMOS 1323 in real time with AllMySat

Download on the App Store